Location: Boiro
(42.6475°N, 8.8834°W)
Time: 23:26:12
(UTC+01:00)

A-11 Canister half - Pass Details

Date: 07 December 2021
Orbit: 1516 x 1684 km, 47.2° (Epoch: 18 January)

Event Time Altitude Azimuth Distance (km) Brightness Sun altitude
Rises 05:00:09 0° 176° (S) 4,688 11.5 -41.8°
Reaches altitude 10° 05:04:51 10° 156° (SSE) 3,738 11.1 -40.9°
Maximum altitude 05:09:52 16° 123° (ESE) 3,341 11.2 -40.0°
Drops below altitude 10° 05:14:56 10° 90° (E) 3,818 11.8 -39.1°
Sets 05:19:46 0° 71° (ENE) 4,843 12.5 -38.2°
